"2010-01-20 00:00:00",1607320,0.704,131.3,0.961,0.04,2.663,101.3578,2.764,3.834,52.62,0,109.7,13.59,3.53,93.3
"2010-01-20 00:00:30",1607321,1.441,134.5,6.005,1.147,4.191,101.3578,2.764,3.847,52.85,0,109.7,13.56,3.53,96.5
"2010-01-20 00:01:00",1607322,1.647,137.4,7.912,1.163,5.423,101.3547,2.756,3.958,53.2,0,109.7,13.56,3.52,99.4
"2010-01-20 00:01:30",1607323,0.839,133.6,3.913,0.486,3.972,101.3439,2.728,3.887,53.3,0,109.7,13.58,3.49,95.6
"2010-01-20 00:02:00",1607324,2.749,150.6,4.552,1.163,7.313,101.3332,2.701,4.028,53.7,0,109.7,13.56,3.46,112.6
"2010-01-20 00:02:30",1607325,2.596,144.6,8.9,1.198,6.664,101.3241,2.678,4.041,54.02,0,109.7,13.56,3.44,106.6
"2010-01-20 00:03:00",1607326,1.264,144.8,6.418,0.923,3.737,101.3238,2.677,3.882,54.06,0,109.7,13.56,3.44,106.8
"2010-01-20 00:03:30",1607327,0.908,155.9,4.846,0.764,3.301,101.3238,2.677,3.801,53.97,0,109.7,13.56,3.44,117.9
"2010-01-20 00:04:00",1607328,0.599,170.2,6.476,0.053,3.075,101.3207,2.669,3.755,53.76,0,109.7,13.59,3.43,132.2
"2010-01-20 00:04:30",1607329,1.128,182.7,6.621,0.994,4.505,101.3049,2.629,3.875,53.65,0,109.7,13.56,3.39,144.7
"2010-01-20 00:05:00",1607330,1.46,186.5,4.984,1.114,4.643,101.2922,2.596,3.795,53.46,0,109.7,13.56,3.36,148.5
"2010-01-20 00:05:30",1607331,1.191,194.8,4.095,0.829,4.563,101.2919,2.596,3.782,53.43,0,109.7,13.56,3.36,156.8
"2010-01-20 00:06:00",1607332,2.125,202.1,5.167,1.27,6.128,101.2913,2.594,3.895,53.45,0,109.7,13.56,3.36,164.1
"2010-01-20 00:06:30",1607333,2.377,200.6,7.316,1.244,6.73,101.2927,2.598,3.897,53.38,0,109.7,13.56,3.36,162.6
"2010-01-20 00:07:00",1607334,2.139,186.4,13.7,1.27,6.544,101.2916,2.595,3.826,53.39,0,109.7,13.56,3.36,148.4
"2010-01-20 00:07:30",1607335,1.157,169.4,8.25,0.639,4.21,101.2837,2.575,3.797,53.73,0,109.7,13.59,3.34,131.4
"2010-01-20 00:08:00",1607336,1.672,174.5,4.26,1.059,4.165,101.271,2.542,3.651,54.41,0,109.7,13.56,3.30,136.5
"2010-01-20 00:08:30",1607337,1.58,175.8,6.739,0.944,4.414,101.2622,2.52,3.772,55.2,0,109.7,13.56,3.28,137.8
"2010-01-20 00:09:00",1607338,1.751,171.3,9.33,1.128,4.443,101.2651,2.527,3.636,55.28,0,109.7,13.56,3.29,133.3
"2010-01-20 00:09:30",1607339,1.886,174.3,6.71,1.201,4.658,101.2648,2.527,3.631,54.98,0,109.7,13.56,3.29,136.3
"2010-01-20 00:10:00",1607340,1.405,175.3,9.32,0.968,4.938,101.2645,2.526,3.719,54.82,0,109.7,13.56,3.29,137.3
"2010-01-20 00:10:30",1607341,2.909,181.8,5.707,1.081,7.985,101.2529,2.496,3.83,54.71,0,109.7,13.56,3.26,143.8
"2010-01-20 00:11:00",1607342,2.499,171.8,6.972,1.152,6.307,101.2479,2.483,3.745,54.48,0,109.7,13.56,3.24,133.8
"2010-01-20 00:11:30",1607343,1.324,152,6.757,0.13,2.997,101.2334,2.446,3.565,54.36,0,109.7,13.59,3.21,114.0
"2010-01-20 00:12:00",1607344,1.835,153.8,8.36,0.871,3.949,101.2334,2.446,3.712,54.64,0,109.7,13.56,3.21,115.8
"2010-01-20 00:12:30",1607345,1.677,155.3,10.48,1.082,3.982,101.2357,2.452,3.636,54.65,0,109.7,13.56,3.21,117.3
"2010-01-20 00:13:00",1607346,1.468,148.2,5.935,0.673,3.88,101.2352,2.451,3.588,54.73,0,109.7,13.56,3.21,110.2
"2010-01-20 00:13:30",1607347,2.592,163.6,7.739,1.279,5.994,101.2312,2.441,3.718,54.89,0,109.7,13.56,3.20,125.6
"2010-01-20 00:14:00",1607348,3.314,162.3,8.09,1.11,7.376,101.2117,2.391,3.747,54.9,0,109.7,13.56,3.15,124.3
"2010-01-20 00:14:30",1607349,3.478,158.7,6.565,1.232,6.903,101.2047,2.373,3.731,55.23,0,109.7,13.57,3.13,120.7
"2010-01-20 00:15:00",1607350,2.909,157.5,6.989,1.341,5.714,101.2038,2.371,3.629,55.58,0,109.7,13.57,3.13,119.5
"2010-01-20 00:15:30",1607351,2.514,152.1,6.581,1.03,4.077,101.2049,2.374,3.515,55.67,0,109.7,13.56,3.13,114.1
"2010-01-20 00:16:00",1607352,2.979,155.3,6.164,1.256,5.327,101.2041,2.372,3.567,55.83,0,109.7,13.57,3.13,117.3
"2010-01-20 00:16:30",1607353,1.867,151.7,1.218,0.121,3.47,101.2058,2.376,3.457,55.77,0,109.7,13.6,3.14,113.7
"2010-01-20 00:17:00",1607354,3.542,156.9,7.527,1.268,6.353,101.2044,2.372,3.627,55.95,0,109.7,13.57,3.13,118.9
"2010-01-20 00:17:30",1607355,4.332,154.2,6.717,1.151,7.536,101.197,2.354,3.686,56.37,0,109.7,13.57,3.11,116.2
"2010-01-20 00:18:00",1607356,3.74,155,6.43,1.206,6.994,101.19,2.336,3.665,56.63,0,109.7,13.57,3.10,117.0
"2010-01-20 00:18:30",1607357,3.335,148.6,7.427,1.043,4.722,101.1778,2.305,3.5,56.45,0,109.7,13.57,3.06,110.6
"2010-01-20 00:19:00",1607358,3.49,152.5,7.061,1.154,5.576,101.1753,2.298,3.542,56.74,0,109.7,13.57,3.06,114.5
"2010-01-20 00:19:30",1607359,2.732,142.3,4.219,0.61,4.307,101.1738,2.294,3.552,57.03,0,109.7,13.57,3.05,104.3
"2010-01-20 00:20:00",1607360,3.593,152.7,8.34,1.231,5.981,101.1764,2.301,3.574,57.22,0,109.7,13.57,3.06,114.7
"2010-01-20 00:20:30",1607361,4.194,148.9,7.209,1.239,7.156,101.1796,2.309,3.626,57.29,0,109.7,13.57,3.07,110.9
"2010-01-20 00:21:00",1607362,4.533,149.5,6.376,1.231,7.587,101.1799,2.31,3.697,57.43,0,109.7,13.57,3.07,111.5
"2010-01-20 00:21:30",1607363,4.192,151.4,6.092,1.18,6.438,101.1799,2.31,3.492,57.1,0,109.7,13.57,3.07,113.4
"2010-01-20 00:22:00",1607364,3.921,141.2,8.5,1.082,5.922,101.1793,2.308,3.585,57.03,0,109.7,13.57,3.07,103.2
"2010-01-20 00:22:30",1607365,3.681,138.5,4.52,0.966,4.485,101.1793,2.308,3.397,57.54,0,109.7,13.57,3.07,100.5
"2010-01-20 00:23:00",1607366,4.935,152.4,7.341,1.271,7.24,101.1886,2.332,3.552,57.85,0,109.7,13.57,3.09,114.4
"2010-01-20 00:23:30",1607367,4.906,155.4,5,1.136,7.913,101.1952,2.349,3.642,57.67,0,109.7,13.57,3.11,117.4
"2010-01-20 00:24:00",1607368,4.788,152,6.238,1.14,7.734,101.2036,2.37,3.65,57.52,0,109.7,13.57,3.13,114.0
"2010-01-20 00:24:30",1607369,4.757,149.2,6.213,1.217,7.462,101.2144,2.398,3.594,57.54,0,109.7,13.57,3.16,111.2
"2010-01-20 00:25:00",1607370,4.543,143.1,6.685,1.161,6.754,101.2147,2.399,3.569,57.93,0,109.7,13.57,3.16,105.1
"2010-01-20 00:25:30",1607371,3.229,136.3,3.296,0.656,3.909,101.2147,2.399,3.409,57.94,0,109.8,13.56,3.16,98.3
"2010-01-20 00:26:00",1607372,4.969,144.8,9.47,1.163,7.237,101.2144,2.398,3.613,58.33,0,109.7,13.56,3.16,106.8
"2010-01-20 00:26:30",1607373,4.19,151.6,6.521,1.208,6.947,101.2155,2.401,3.648,58.23,0,109.7,13.56,3.16,113.6
"2010-01-20 00:27:00",1607374,4.164,151.9,7.217,1.224,7.81,101.2141,2.397,3.676,58.1,0,109.7,13.56,3.16,113.9
"2010-01-20 00:27:30",1607375,4.474,154.6,6.028,1.344,7.283,101.2155,2.401,3.655,57.84,0,109.7,13.56,3.16,116.6
"2010-01-20 00:28:00",1607376,4.166,151.6,9.11,1.269,5.847,101.2167,2.404,3.58,57.71,0,109.7,13.56,3.16,113.6
"2010-01-20 00:28:30",1607377,3.219,146.9,3.744,0.167,3.776,101.2192,2.41,3.524,57.91,0,109.7,13.59,3.17,108.9
"2010-01-20 00:29:00",1607378,4.16,153.6,6.472,1.246,5.972,101.2266,2.429,3.619,58.11,0,109.7,13.56,3.19,115.6
"2010-01-20 00:29:30",1607379,4.361,156.2,7.109,1.161,7.389,101.2376,2.457,3.681,58.26,0,109.7,13.56,3.22,118.2
"2010-01-20 00:30:00",1607380,4.502,165.8,6.369,1.08,7.95,101.2461,2.479,3.694,58.21,0,109.7,13.56,3.24,127.8
"2010-01-20 00:30:30",1607381,4.529,166.6,6.402,1.046,7.777,101.2503,2.49,3.651,57.98,0,109.7,13.57,3.25,128.6
"2010-01-20 00:31:00",1607382,3.688,168.4,6.775,1.055,5.684,101.2503,2.49,3.585,57.7,0,109.7,13.57,3.25,130.4
"2010-01-20 00:31:30",1607383,3.048,165,4.879,0.884,4.485,101.2532,2.497,3.629,57.52,0,109.7,13.57,3.26,127.0
"2010-01-20 00:32:00",1607384,3.698,167.3,5.815,1.197,5.517,101.2529,2.496,3.653,57.41,0,109.7,13.57,3.26,129.3
"2010-01-20 00:32:30",1607385,3.554,166.1,7.988,1.101,5.794,101.2521,2.494,3.699,57.38,0,109.7,13.57,3.25,128.1
"2010-01-20 00:33:00",1607386,4.318,172.1,4.967,1.208,7.475,101.2503,2.49,3.705,57.35,0,109.7,13.57,3.25,134.1
"2010-01-20 00:33:30",1607387,5.011,170.2,6.264,0.913,8.21,101.2518,2.493,3.712,57.26,0,109.7,13.57,3.25,132.2
"2010-01-20 00:34:00",1607388,4.686,169.6,6.249,1.07,7.438,101.2555,2.503,3.73,57.4,0,109.7,13.57,3.26,131.6
"2010-01-20 00:34:30",1607389,3.167,160.3,4.232,0.738,3.857,101.2662,2.53,3.597,57.26,0,109.7,13.57,3.29,122.3
"2010-01-20 00:35:00",1607390,3.955,166.4,8.14,1.258,5.554,101.2707,2.542,3.646,57.27,0,109.7,13.57,3.30,128.4
"2010-01-20 00:35:30",1607391,3.689,169.1,6.737,1.256,5.548,101.2736,2.549,3.691,57.3,0,109.7,13.57,3.31,131.1
"2010-01-20 00:36:00",1607392,3.929,172.9,5.5,1.263,6.136,101.2824,2.571,3.696,57.17,0,109.7,13.57,3.33,134.9
"2010-01-20 00:36:30",1607393,4.692,173.1,5.785,1.113,7.97,101.286,2.581,3.803,57.11,0,109.7,13.57,3.34,135.1
"2010-01-20 00:37:00",1607394,4.78,173.6,6.11,1.043,7.897,101.2849,2.578,3.83,57.06,0,109.6,13.57,3.34,135.6
"2010-01-20 00:37:30",1607395,3.799,169.5,5.759,1.168,5.181,101.288,2.586,3.623,56.68,0,109.7,13.57,3.35,131.5
"2010-01-20 00:38:00",1607396,3.704,170.1,5.784,1.208,4.617,101.2877,2.585,3.642,56.45,0,109.7,13.57,3.35,132.1
"2010-01-20 00:38:30",1607397,4.046,171,6.297,1.187,5.477,101.2863,2.581,3.671,56.31,0,109.7,13.57,3.34,133.0
"2010-01-20 00:39:00",1607398,3.161,165.5,1.079,0.078,3.732,101.2857,2.58,3.696,56.37,0,109.7,13.61,3.34,127.5
"2010-01-20 00:39:30",1607399,5.304,176.6,5.108,1.067,7.856,101.2854,2.579,3.783,56.64,0,109.7,13.57,3.34,138.6
"2010-01-20 00:40:00",1607400,5.217,180.1,5.159,0.964,8.22,101.2852,2.578,3.875,56.85,0,109.7,13.57,3.34,142.1
"2010-01-20 00:40:30",1607401,4.516,178.2,6.73,1.197,7.387,101.2863,2.581,3.866,56.7,0,109.7,13.57,3.34,140.2
"2010-01-20 00:41:00",1607402,4.323,177.3,7.238,1.165,5.159,101.2877,2.585,3.695,56.4,0,109.7,13.57,3.35,139.3
"2010-01-20 00:41:30",1607403,4.57,180.6,6.528,1.243,5.498,101.2886,2.587,3.71,56.45,0,109.7,13.57,3.35,142.6
"2010-01-20 00:42:00",1607404,3.428,178.5,2.096,0.113,3.454,101.2886,2.587,3.589,56.26,0,109.7,13.6,3.35,140.5
"2010-01-20 00:42:30",1607405,4.688,185.6,6.764,1.29,5.759,101.2892,2.589,3.679,56.22,0,109.7,13.57,3.35,147.6
"2010-01-20 00:43:00",1607406,5.273,190.7,5.238,1.091,7.96,101.2889,2.588,3.885,56.3,0,109.7,13.57,3.35,152.7
"2010-01-20 00:43:30",1607407,4.969,191.9,5.409,1.163,7.753,101.2877,2.585,3.902,56.22,0,109.7,13.57,3.35,153.9
"2010-01-20 00:44:00",1607408,4.426,193.1,6.073,1.294,6.364,101.2892,2.589,3.781,56,0,109.7,13.56,3.35,155.1
"2010-01-20 00:44:30",1607409,4.032,190.3,6.485,1.221,5.522,101.2895,2.589,3.756,55.92,0,109.7,13.56,3.35,152.3
"2010-01-20 00:45:00",1607410,3.012,182.9,1.632,0.087,3.214,101.2903,2.592,3.599,55.69,0,109.7,13.59,3.35,144.9
"2010-01-20 00:45:30",1607411,3.07,180.9,1.763,0.091,3.622,101.29,2.591,3.655,55.73,0,109.7,13.59,3.35,142.9
"2010-01-20 00:46:00",1607412,5.454,190.5,4.077,0.389,8.62,101.2889,2.588,3.861,56.02,0,109.7,13.57,3.35,152.5
"2010-01-20 00:46:30",1607413,5.212,189.5,4.221,0.705,8.9,101.2897,2.59,3.92,56.12,0,109.7,13.57,3.35,151.5
"2010-01-20 00:47:00",1607414,5.234,189.7,4.605,0.693,8.05,101.2897,2.59,3.839,55.99,0,109.7,13.57,3.35,151.7
"2010-01-20 00:47:30",1607415,3.51,181.3,5.703,0.994,4.731,101.2895,2.589,3.741,55.84,0,109.7,13.57,3.35,143.3
"2010-01-20 00:48:00",1607416,3.383,180,4.888,0.926,3.601,101.2903,2.592,3.596,55.6,0,109.7,13.57,3.35,142.0
"2010-01-20 00:48:30",1607417,2.833,178.1,0.938,0.065,3.134,101.2903,2.592,3.61,55.48,0,109.7,13.61,3.35,140.1
"2010-01-20 00:49:00",1607418,3.369,180.6,5.229,1.028,4.509,101.29,2.591,3.63,55.46,0,109.7,13.57,3.35,142.6
"2010-01-20 00:49:30",1607419,5.022,189.4,4.075,0.811,8.51,101.2895,2.589,3.92,55.72,0,109.7,13.58,3.35,151.4
"2010-01-20 00:50:00",1607420,5.197,191.9,4.736,0.453,8.77,101.29,2.591,3.908,55.7,0,109.7,13.57,3.35,153.9
"2010-01-20 00:50:30",1607421,3.718,185.6,6.456,1.163,5.788,101.2903,2.592,3.795,55.44,0,109.7,13.57,3.35,147.6
"2010-01-20 00:51:00",1607422,3.687,187.2,5.91,1.221,5.159,101.29,2.591,3.689,55.33,0,109.7,13.57,3.35,149.2
"2010-01-20 00:51:30",1607423,2.577,184.7,0.769,0.057,3.191,101.2898,2.59,3.583,55.24,0,109.7,13.61,3.35,146.7
"2010-01-20 00:52:00",1607424,2.598,185.3,1.007,0.073,3.61,101.2869,2.583,3.591,55.24,0,109.7,13.61,3.34,147.3
"2010-01-20 00:52:30",1607425,4.415,197,5.798,1.07,7.588,101.2815,2.569,3.83,55.47,0,109.7,13.58,3.33,159.0
"2010-01-20 00:53:00",1607426,4.855,199.5,4.084,0.533,8.82,101.2765,2.556,3.882,55.52,0,109.7,13.58,3.32,161.5
"2010-01-20 00:53:30",1607427,4.038,195.8,5.913,1.204,7.379,101.2731,2.548,3.848,55.52,0,109.7,13.57,3.31,157.8
"2010-01-20 00:54:00",1607428,3.859,194.7,6.197,1.219,6.525,101.2699,2.54,3.685,55.44,0,109.7,13.57,3.30,156.7
"2010-01-20 00:54:30",1607429,2.476,185.6,1.689,0.121,3.279,101.2634,2.523,3.553,55.43,0,109.7,13.61,3.28,147.6
"2010-01-20 00:55:00",1607430,2.561,183.3,1.14,0.082,3.396,101.2583,2.51,3.563,55.59,0,109.7,13.61,3.27,145.3
"2010-01-20 00:55:30",1607431,3.829,190.3,6.325,1.332,6.36,101.2566,2.506,3.763,55.88,0,109.7,13.58,3.27,152.3
"2010-01-20 00:56:00",1607432,4.273,191.4,5.682,1.149,7.587,101.2564,2.505,3.799,56.02,0,109.7,13.58,3.27,153.4
"2010-01-20 00:56:30",1607433,4.867,192.7,5.864,0.809,7.925,101.2564,2.505,3.784,56,0,109.7,13.58,3.27,154.7
"2010-01-20 00:57:00",1607434,4.275,188.5,6.365,1.16,7.202,101.2564,2.505,3.807,56.03,0,109.7,13.58,3.27,150.5
"2010-01-20 00:57:30",1607435,3.13,185.7,5.08,1.128,4.753,101.2564,2.505,3.64,55.88,0,109.7,13.58,3.27,147.7
"2010-01-20 00:58:00",1607436,2.326,183.5,1.316,0.093,3.415,101.2564,2.505,3.558,55.7,0,109.7,13.61,3.27,145.5
"2010-01-20 00:58:30",1607437,3.067,190,6.097,1.145,5.32,101.2564,2.505,3.735,55.82,0,109.7,13.57,3.27,152.0
"2010-01-20 00:59:00",1607438,3.882,195.6,6.58,1.105,7.345,101.2561,2.504,3.759,55.76,0,109.7,13.57,3.27,157.6
"2010-01-20 00:59:30",1607439,2.934,191.5,5.889,1.236,5.922,101.255,2.501,3.691,55.64,0,109.7,13.57,3.26,153.5
"2010-01-20 01:00:00",1607440,3.468,202.6,5.498,1.194,6.827,101.2479,2.483,3.758,55.64,0,109.7,13.57,3.24,164.6
"2010-01-20 01:00:30",1607441,3.432,204.1,5.624,1.141,6.625,101.2363,2.454,3.715,55.46,0,109.7,13.57,3.21,166.1
"2010-01-20 01:01:00",1607442,2.107,201.9,3.414,0.912,3.521,101.2298,2.437,3.511,55.15,0,109.7,13.57,3.20,163.9
"2010-01-20 01:01:30",1607443,1.625,204.1,1.982,0.035,3.081,101.2233,2.42,3.502,55.08,0,109.7,13.61,3.18,166.1
"2010-01-20 01:02:00",1607444,2.783,213.4,6.897,1.266,5.558,101.2224,2.418,3.645,55.1,0,109.7,13.57,3.18,175.4
"2010-01-20 01:02:30",1607445,3.114,215.4,5.928,1.232,6.648,101.2224,2.418,3.765,55.02,0,109.7,13.58,3.18,177.4
"2010-01-20 01:03:00",1607446,3.517,218,5.633,1.133,6.592,101.2224,2.418,3.656,54.85,0,109.7,13.58,3.18,180.0
"2010-01-20 01:03:30",1607447,3.655,222.8,5.104,1.073,6.785,101.2224,2.418,3.718,54.97,0,109.7,13.58,3.18,184.8
"2010-01-20 01:04:00",1607448,3.274,221.3,5.723,1.211,6.398,101.2224,2.418,3.666,54.92,0,109.7,13.58,3.18,183.3
"2010-01-20 01:04:30",1607449,2.194,214.2,4.208,0.851,3.599,101.2224,2.418,3.461,54.71,0,109.7,13.58,3.18,176.2
"2010-01-20 01:05:00",1607450,2.743,224.6,6.673,1.253,4.805,101.2213,2.415,3.592,54.83,0,109.7,13.58,3.18,186.6
"2010-01-20 01:05:30",1607451,3.008,224.2,6.637,1.241,5.577,101.2117,2.391,3.544,54.7,0,109.7,13.58,3.15,186.2
"2010-01-20 01:06:00",1607452,2.602,226.7,6.052,1.159,4.913,101.1947,2.348,3.559,54.64,0,109.7,13.58,3.11,188.7
"2010-01-20 01:06:30",1607453,2.874,226.3,7.383,1.258,5.483,101.1887,2.332,3.607,54.56,0,109.7,13.58,3.09,188.3
"2010-01-20 01:07:00",1607454,3.704,230.8,5.366,1.117,6.875,101.1885,2.332,3.657,54.5,0,109.7,13.58,3.09,192.8
"2010-01-20 01:07:30",1607455,2.358,222.9,4.966,0.896,4.563,101.1885,2.332,3.592,54.4,0,109.7,13.58,3.09,184.9
"2010-01-20 01:08:00",1607456,2.5,220.4,6.193,0.934,4.786,101.1885,2.332,3.554,54.39,0,109.7,13.58,3.09,182.4
"2010-01-20 01:08:30",1607457,2.995,214.8,7.744,1.112,4.833,101.1885,2.332,3.466,54.49,0,109.7,13.58,3.09,176.8
"2010-01-20 01:09:00",1607458,3.425,214.1,6.351,1.256,6.207,101.1859,2.325,3.609,54.79,0,109.7,13.58,3.09,176.1
"2010-01-20 01:09:30",1607459,3.016,207.7,4.875,1.134,5.654,101.1735,2.293,3.575,54.91,0,109.7,13.58,3.05,169.7
"2010-01-20 01:10:00",1607460,3.605,204.1,6.426,1.199,6.994,101.1681,2.28,3.628,55.2,0,109.7,13.58,3.04,166.1
"2010-01-20 01:10:30",1607461,3.679,206,5.518,1.111,6.354,101.1593,2.257,3.468,55.43,0,109.7,13.58,3.02,168.0
"2010-01-20 01:11:00",1607462,2.282,203.5,3.711,0.498,4.114,101.1545,2.245,3.484,55.53,0,109.7,13.59,3.00,165.5
"2010-01-20 01:11:30",1607463,3.307,207.3,6.34,1.181,5.355,101.1548,2.246,3.427,55.24,0,109.7,13.58,3.01,169.3
"2010-01-20 01:12:00",1607464,3.85,211.4,6.349,1.231,6.345,101.1548,2.246,3.536,55.27,0,109.7,13.59,3.01,173.4
"2010-01-20 01:12:30",1607465,2.837,205.6,4.222,0.866,4.529,101.1548,2.246,3.466,55.15,0,109.7,13.59,3.01,167.6
"2010-01-20 01:13:00",1607466,3.936,210.6,6.165,1.256,6.192,101.1525,2.24,3.463,55.09,0,109.7,13.59,3.00,172.6
"2010-01-20 01:13:30",1607467,4.111,209,6.136,1.158,6.439,101.1406,2.21,3.559,55.22,0,109.7,13.59,2.97,171.0
"2010-01-20 01:14:00",1607468,3.432,208.6,6.879,1.152,5.573,101.1308,2.184,3.472,55.24,0,109.6,13.59,2.94,170.6
"2010-01-20 01:14:30",1607469,3.529,210.6,5.719,1.066,4.941,101.1228,2.164,3.375,55.2,0,109.7,13.59,2.92,172.6
"2010-01-20 01:15:00",1607470,3.65,211.8,6.223,1.183,5.466,101.124,2.167,3.423,55.02,0,109.7,13.59,2.93,173.8
"2010-01-20 01:15:30",1607471,3.801,211.6,7.248,1.24,5.579,101.1237,2.166,3.391,54.79,0,109.6,13.58,2.93,173.6
"2010-01-20 01:16:00",1607472,3.732,209.5,7.033,1.287,6.249,101.128,2.177,3.47,55.27,0,109.6,13.59,2.94,171.5
"2010-01-20 01:16:30",1607473,3.878,200.4,6.811,1.202,6.835,101.1277,2.177,3.452,55.52,0,109.6,13.59,2.94,162.4
"2010-01-20 01:17:00",1607474,3.326,192.9,8.99,0.95,5.019,101.1308,2.185,3.348,55.67,0,109.6,13.59,2.94,154.9
"2010-01-20 01:17:30",1607475,4.315,191.1,5.564,1.293,6.713,101.1326,2.189,3.457,56.25,0,109.6,13.59,2.95,153.1
"2010-01-20 01:18:00",1607476,3.444,182.4,4.926,0.894,4.477,101.132,2.188,3.344,56.67,0,109.6,13.59,2.95,144.4
"2010-01-20 01:18:30",1607477,3.869,182.1,8.98,1.172,5.483,101.1303,2.183,3.308,57,0,109.6,13.59,2.94,144.1
"2010-01-20 01:19:00",1607478,4.716,180.4,6.252,1.154,7.276,101.1335,2.191,3.449,57.54,0,109.6,13.59,2.95,142.4
"2010-01-20 01:19:30",1607479,4.124,177.2,6.823,1.231,6.5,101.1343,2.194,3.434,57.84,0,109.7,13.59,2.95,139.2
"2010-01-20 01:20:00",1607480,3.668,177.5,6.614,1.182,6.349,101.1386,2.204,3.504,58.08,0,109.6,13.59,2.96,139.5
"2010-01-20 01:20:30",1607481,4.676,181.3,6.375,1.07,7.619,101.1409,2.21,3.374,58.06,0,109.6,13.59,2.97,143.3
"2010-01-20 01:21:00",1607482,3.946,178,6.685,1.232,6.55,101.1423,2.214,3.444,58.3,0,109.6,13.59,2.97,140.0
"2010-01-20 01:21:30",1607483,3.822,178.3,5.459,1.192,5.813,101.1432,2.216,3.313,58.24,0,109.6,13.59,2.98,140.3
"2010-01-20 01:22:00",1607484,4.269,182.4,5.747,1.224,6.486,101.1446,2.22,3.397,58.34,0,109.6,13.59,2.98,144.4
"2010-01-20 01:22:30",1607485,4.888,187.8,6.089,1.113,7.456,101.1446,2.22,3.476,58.38,0,109.6,13.59,2.98,149.8
"2010-01-20 01:23:00",1607486,3.241,183.4,2.741,0.778,4.125,101.1443,2.219,3.249,57.89,0,109.6,13.59,2.98,145.4
"2010-01-20 01:23:30",1607487,4.156,191.1,6.726,1.254,6.251,101.1446,2.22,3.377,57.66,0,109.6,13.59,2.98,153.1
"2010-01-20 01:24:00",1607488,4.729,191.7,5.936,1.133,7.203,101.1463,2.224,3.472,57.49,0,109.6,13.59,2.98,153.7
"2010-01-20 01:24:30",1607489,3.847,185.9,6.332,1.046,5.344,101.146,2.223,3.329,57.26,0,109.6,13.59,2.98,147.9
"2010-01-20 01:25:00",1607490,4.249,189.2,6.908,1.241,5.511,101.1466,2.225,3.421,57.25,0,109.7,13.59,2.98,151.2
"2010-01-20 01:25:30",1607491,4.667,190.5,6.148,1.28,6.063,101.1483,2.229,3.468,57.13,0,109.7,13.59,2.99,152.5
"2010-01-20 01:26:00",1607492,4.599,181.7,9.52,1.32,5.971,101.1492,2.231,3.347,56.99,0,109.6,13.59,2.99,143.7
"2010-01-20 01:26:30",1607493,4.299,174.9,6.043,1.219,5.31,101.15,2.234,3.357,57.56,0,109.7,13.59,2.99,136.9
"2010-01-20 01:27:00",1607494,5.328,176.5,5.463,1.102,7.63,101.1596,2.258,3.473,58.18,0,109.6,13.59,3.02,138.5
"2010-01-20 01:27:30",1607495,4.304,170.9,6.105,1.14,5.928,101.1715,2.288,3.407,58.56,0,109.7,13.59,3.05,132.9
"2010-01-20 01:28:00",1607496,5.242,172.8,6.272,1.189,7.41,101.1806,2.312,3.477,58.93,0,109.6,13.59,3.07,134.8
"2010-01-20 01:28:30",1607497,5.153,170,6.672,1.175,6.802,101.1811,2.313,3.535,59.21,0,109.7,13.59,3.07,132.0
"2010-01-20 01:29:00",1607498,4.944,169.6,7.092,1.272,6.437,101.1831,2.318,3.387,59.22,0,109.6,13.59,3.08,131.6
"2010-01-20 01:29:30",1607499,4.888,170.1,6.077,1.187,6.015,101.1863,2.326,3.354,59.2,0,109.7,13.59,3.09,132.1
"2010-01-20 01:30:00",1607500,4.922,171.9,6.497,1.158,7.157,101.1851,2.323,3.548,59.26,0,109.7,13.59,3.08,133.9
"2010-01-20 01:30:30",1607501,4.817,170.5,6.61,1.21,7.205,101.1894,2.334,3.575,59.25,0,109.7,13.59,3.09,132.5
"2010-01-20 01:31:00",1607502,5.184,171.1,6.515,1.202,7.304,101.2001,2.361,3.498,59.32,0,109.6,13.59,3.12,133.1
"2010-01-20 01:31:30",1607503,5.196,172.3,5.846,1.169,7.463,101.2061,2.377,3.568,59.57,0,109.7,13.58,3.14,134.3
"2010-01-20 01:32:00",1607504,4.123,167.4,5.331,1.028,4.944,101.2174,2.406,3.419,59.43,0,109.6,13.59,3.17,129.4
"2010-01-20 01:32:30",1607505,3.863,167.3,4.825,0.743,4.706,101.2191,2.41,3.464,59.48,0,109.6,13.59,3.17,129.3
"2010-01-20 01:33:00",1607506,5.433,178.3,6.174,1.062,7.637,101.2202,2.413,3.544,59.34,0,109.6,13.59,3.17,140.3
"2010-01-20 01:33:30",1607507,5.191,178.9,6.539,1.143,7.158,101.2205,2.414,3.486,58.89,0,109.6,13.59,3.17,140.9
"2010-01-20 01:34:00",1607508,5.611,186,5.522,0.925,8.57,101.2202,2.413,3.626,58.83,0,109.6,13.59,3.17,148.0
"2010-01-20 01:34:30",1607509,5.352,188.5,5.428,1.141,7.586,101.2217,2.416,3.574,58.45,0,109.6,13.59,3.18,150.5
"2010-01-20 01:35:00",1607510,4,181.6,5.031,0.94,5.044,101.2214,2.416,3.558,58.17,0,109.6,13.59,3.18,143.6
"2010-01-20 01:35:30",1607511,4.385,184.6,6.474,1.227,5.401,101.2223,2.418,3.531,57.93,0,109.6,13.59,3.18,146.6
"2010-01-20 01:36:00",1607512,4.266,187.8,7.135,1.189,5.765,101.2234,2.421,3.577,57.82,0,109.7,13.59,3.18,149.8
"2010-01-20 01:36:30",1607513,5.113,195.7,6.082,1.181,6.849,101.2251,2.425,3.541,57.35,0,109.6,13.59,3.19,157.7
"2010-01-20 01:37:00",1607514,5.31,195.1,5.62,1.067,7.995,101.2256,2.427,3.681,57.08,0,109.6,13.59,3.19,157.1
"2010-01-20 01:37:30",1607515,5.335,196.8,5.484,1.032,7.722,101.2259,2.427,3.65,56.73,0,109.6,13.59,3.19,158.8
"2010-01-20 01:38:00",1607516,3.634,191.1,4.981,0.747,4.732,101.2285,2.434,3.587,56.43,0,109.6,13.59,3.19,153.1
"2010-01-20 01:38:30",1607517,4.142,193.8,6.713,1.154,5.564,101.2282,2.433,3.538,56.18,0,109.6,13.59,3.19,155.8
"2010-01-20 01:39:00",1607518,4.108,194.8,6.341,1.193,5.528,101.2273,2.431,3.566,55.99,0,109.7,13.59,3.19,156.8
"2010-01-20 01:39:30",1607519,4.896,202.2,5.421,1.028,7.378,101.2259,2.427,3.557,55.66,0,109.7,13.59,3.19,164.2
"2010-01-20 01:40:00",1607520,4.334,202.1,6.321,1.219,7.172,101.2259,2.427,3.681,55.56,0,109.7,13.6,3.19,164.1
"2010-01-20 01:40:30",1607521,4.289,204.5,6.043,1.162,7.251,101.2251,2.425,3.693,55.48,0,109.7,13.6,3.19,166.5
"2010-01-20 01:41:00",1607522,4.103,204.8,6.959,1.253,5.89,101.2222,2.418,3.545,55.24,0,109.7,13.59,3.18,166.8
"2010-01-20 01:41:30",1607523,3.383,204,4.179,1.077,4.24,101.222,2.417,3.507,55.05,0,109.7,13.6,3.18,166.0
"2010-01-20 01:42:00",1607524,3.811,211.7,5.777,1.147,5.271,101.2223,2.418,3.502,54.8,0,109.7,13.6,3.18,173.7
"2010-01-20 01:42:30",1607525,3.812,213.6,6.347,1.205,4.904,101.2225,2.419,3.513,54.65,0,109.7,13.6,3.18,175.6
"2010-01-20 01:43:00",1607526,4.716,220.9,5.842,1.065,7.459,101.2223,2.418,3.66,54.69,0,109.7,13.6,3.18,182.9
"2010-01-20 01:43:30",1607527,4.805,221.9,5.055,1.135,7.416,101.2223,2.418,3.659,54.58,0,109.7,13.6,3.18,183.9
"2010-01-20 01:44:00",1607528,4.282,223.3,7.38,1.251,6.813,101.2225,2.419,3.658,54.63,0,109.7,13.6,3.18,185.3
"2010-01-20 01:44:30",1607529,4.177,224.6,6.487,1.217,6.154,101.2225,2.419,3.623,54.61,0,109.7,13.6,3.18,186.6
"2010-01-20 01:45:00",1607530,3.263,217.9,5.015,0.826,4.095,101.2228,2.419,3.489,54.32,0,109.7,13.6,3.18,179.9
"2010-01-20 01:45:30",1607531,3.523,215.7,5.054,0.919,4.593,101.2228,2.419,3.525,54.23,0,109.7,13.6,3.18,177.7
"2010-01-20 01:46:00",1607532,4.97,220.7,5.406,1.09,7.487,101.2217,2.416,3.646,54.35,0,109.7,13.6,3.18,182.7
"2010-01-20 01:46:30",1607533,4.943,220.8,6.87,1.11,7.494,101.216,2.402,3.664,54.52,0,109.7,13.59,3.16,182.8
"2010-01-20 01:47:00",1607534,4.768,221.7,6.127,1.092,6.98,101.2101,2.387,3.596,54.5,0,109.7,13.59,3.15,183.7
"2010-01-20 01:47:30",1607535,3.988,216.6,6.314,1.16,5.51,101.2053,2.375,3.576,54.33,0,109.7,13.59,3.13,178.6